Weather History for KANJ - May, 2013

Change the Weather History Date:

Tuesday, May 21, 2013

  Actual Average Record
Temperature  
Mean Temperature 57 °F 53 °F  
Max Temperature 60 °F 64 °F 86 °F (1975)
Min Temperature 53 °F 42 °F 25 °F (1967)
Degree Days  
Heating Degree Days 8 12  
Month to date heating degree days 256 308  
Since 1 July heating degree days 8104 8377  
Cooling Degree Days 0 0  
Month to date cooling degree days 0 0  
Year to date cooling degree days 0 0  
Growing Degree Days 6 (Base 50)    
Moisture  
Dew Point 52 °F    
Average Humidity 86    
Maximum Humidity 93    
Minimum Humidity 78    
Precipitation  
Precipitation 0.40 in 0.09 in 1.07 in (2001)
Month to date precipitation 1.73 1.69  
Year to date precipitation 13.54 9.56  
Sea Level Pressure  
Sea Level Pressure 29.77 in    
Wind  
Wind Speed 8 mph (East)    
Max Wind Speed 14 mph    
Max Gust Speed 21 mph    
Visibility 8 miles    
Events Rain    
T = Trace of Precipitation, MM = Missing Value Source: NWS Daily Summary

Daily Weather History Graph

Daily Weather History Graph

Search for Another Location

Airport or City:

Trip Planner

Search our weather history database for the weather conditions in past years. The results will help you decide how hot, cold, wet, or windy it might be!

Date:

Astronomy

May. 21, 2013 Rise Set
Actual Time 5:56 AM EDT 9:11 PM EDT
Civil Twilight 5:20 AM EDT 9:48 PM EDT
Nautical Twilight 4:33 AM EDT 10:36 PM EDT
Astronomical Twilight 3:33 AM EDT 11:36 PM EDT
Moon 5:12 PM EDT (5/21) 3:38 AM EDT (5/21)
Length of Visible Light 16h 27m
Length of Day
15h 14m
Waxing Gibbous, 84% of the Moon is Illuminated
May 21
Waxing Gibbous
May 25
Full
May 31
Last Quarter
Jun 8
New
Jun 16
First Quarter

Hourly Weather History & Observations

Time (EDT) Temp. Dew Point Humidity Pressure Visibility Wind Dir Wind Speed Gust Speed Precip Events Conditions
12:55 AM 55.0 °F 50.0 °F 83% 29.83 in 10.0 mi East 8.1 mph - N/A   Overcast
1:19 AM 55.0 °F 50.0 °F 83% 29.83 in 10.0 mi East 9.2 mph - N/A   Overcast
1:55 AM 55.0 °F 50.0 °F 83% 29.82 in 10.0 mi East 8.1 mph - N/A   Overcast
2:55 AM 54.0 °F 48.9 °F 83% 29.81 in 10.0 mi East 10.4 mph - N/A   Overcast
3:29 AM 54.0 °F 50.0 °F 86% 29.81 in 10.0 mi East 11.5 mph 18.4 mph N/A   Overcast
3:55 AM 54.0 °F 50.0 °F 86% 29.81 in 10.0 mi East 11.5 mph 17.3 mph N/A   Overcast
4:55 AM 54.0 °F 50.0 °F 86% 29.82 in 8.0 mi East 8.1 mph 18.4 mph N/A   Overcast
5:55 AM 54.0 °F 50.0 °F 86% 29.78 in 10.0 mi ENE 8.1 mph - N/A   Overcast
6:55 AM 54.0 °F 50.0 °F 86% 29.82 in 10.0 mi ESE 8.1 mph - N/A   Overcast
7:55 AM 53.1 °F 51.1 °F 93% 29.78 in 10.0 mi NE 8.1 mph - 0.06 in Rain Light Rain
8:51 AM 53.6 °F 51.8 °F 94% 29.81 in 2.0 mi SE 6.9 mph - 0.06 in Rain Heavy Rain
8:55 AM 54.0 °F 51.1 °F 90% 29.81 in 2.5 mi ESE 5.8 mph - 0.08 in Rain Heavy Rain
9:08 AM 54.0 °F 51.1 °F 90% 29.77 in 4.0 mi NE 6.9 mph - 0.04 in Rain Light Rain
9:55 AM 54.0 °F 51.1 °F 90% 29.81 in 4.0 mi ESE 3.5 mph - 0.09 in Rain Light Rain
10:36 AM 54.0 °F 52.0 °F 93% 29.77 in 3.0 mi East 9.2 mph - 0.07 in Rain Rain
10:55 AM 54.0 °F 52.0 °F 93% 29.75 in 2.0 mi East 12.7 mph 18.4 mph 0.13 in Rain Rain
11:08 AM 54.0 °F 52.0 °F 93% 29.76 in 4.0 mi East 9.2 mph - 0.03 in Rain Rain
11:21 AM 55.0 °F 52.0 °F 89% 29.77 in 7.0 mi East 11.5 mph - 0.04 in Rain Light Rain
11:55 AM 55.9 °F 52.0 °F 87% 29.78 in 10.0 mi East 11.5 mph 19.6 mph 0.04 in   Overcast
12:38 PM 55.9 °F 52.0 °F 87% 29.78 in 10.0 mi ESE 10.4 mph - N/A   Overcast
12:55 PM 55.9 °F 52.0 °F 87% 29.77 in 10.0 mi ESE 8.1 mph 17.3 mph N/A   Overcast
1:55 PM 57.0 °F 52.0 °F 83% 29.76 in 10.0 mi East 11.5 mph 19.6 mph N/A   Overcast
2:55 PM 59.0 °F 53.1 °F 81% 29.74 in 10.0 mi East 8.1 mph - N/A   Overcast
3:55 PM 57.9 °F 53.1 °F 84% 29.73 in 8.0 mi East 9.2 mph - N/A   Overcast
4:55 PM 57.9 °F 53.1 °F 84% 29.73 in 10.0 mi East 9.2 mph - N/A   Overcast
5:55 PM 60.1 °F 53.1 °F 78% 29.74 in 10.0 mi East 9.2 mph - N/A   Overcast
6:55 PM 60.1 °F 53.1 °F 78% 29.73 in 10.0 mi East 9.2 mph - N/A   Overcast
7:55 PM 59.0 °F 53.1 °F 81% 29.73 in 10.0 mi East 6.9 mph - N/A   Overcast
8:55 PM 57.9 °F 53.1 °F 84% 29.73 in 10.0 mi Variable 5.8 mph - N/A   Overcast
9:55 PM 57.9 °F 53.1 °F 84% 29.74 in 10.0 mi ENE 4.6 mph - N/A   Overcast
10:55 PM 57.0 °F 52.0 °F 83% 29.74 in 10.0 mi East 5.8 mph - 0.00 in   Overcast
11:26 PM 55.9 °F 52.0 °F 87% 29.74 in 10.0 mi East 5.8 mph - 0.00 in   Overcast
11:55 PM 55.9 °F 52.0 °F 87% 29.73 in 10.0 mi East 6.9 mph - 0.00 in   Overcast